P/2020 S6 ( Leonard )

Japanese version
Home page
Updated on November 3, 2020

---------------------------------------------------------------------

* Profile

Discovery Date September 29, 2020
Magnitude 20.5 mag
Discoverer Gregory J. Leonard (Mount Lemmon Survey)

* Pictures

* Orbital Elements

Epoch 2020 Nov. 7.0 TT = JDT 2459160.5
T 2020 Nov. 23.61136 TT                                 Rudenko
q   1.8748319            (2000.0)            P               Q
n   0.14436566     Peri.  176.65364     +0.50980042     -0.82711794
a   3.5988199      Node   242.57089     +0.78298460     +0.56003959
e   0.4790426      Incl.   15.46007     +0.35642482     -0.04723941
P   6.83
From 135 observations 2020 Aug. 28-Oct. 27, mean residual 0".5.

* Magnitudes Graph

        m1 = 16.5 + 5 log d + 10.0 log r

---------------------------------------------------------------------

The orbital elements are published on M.P.E.C. 2020-U270.
The magnitudes graphs are made with Comet for Windows.

---------------------------------------------------------------------

Copyright(C) Seiichi Yoshida (comet@aerith.net). All rights reserved.